Location: Davidschlag
(48.4333°N, 14.2833°E)
Time: 02:44:54
(UTC+00:00)

Envisat - Pass Details

Date: 27 February 2020
Orbit: 764 x 766 km, 98.1° (Epoch: 09 April)

Event Time Altitude Azimuth Distance (km) Brightness Sun altitude
Rises 17:02:44 0° 177° (S) 3,221 6.3 -4.1°
Reaches altitude 10° 17:05:04 10° 182° (S) 2,299 5.6 -4.5°
Maximum altitude 17:10:03 55° 260° (W) 920 4.0 -5.3°
Drops below altitude 10° 17:15:03 10° 338° (NNW) 2,316 5.7 -6.1°
Sets 17:17:26 0° 343° (NNW) 3,247 6.4 -6.5°
